This is the latest recevied weather packets stored in our database for station/object W5DRO-13. If no packets are shown the sender has not sent any weather packets the latest 10 day(s).
| Time | Temp. | Humidity | Pressure | Rain* | Wind** | Luminosity | Snow |
|---|---|---|---|---|---|---|---|
| 1778102902 | 17.78° C | 49% | 1016.7 hPa | 0 mm | - | - | - |
| 1778102598 | 17.78° C | 49% | 1016.9 hPa | 0 mm | - | - | - |
| 1778102293 | 18.89° C | 48% | 1017 hPa | 0 mm | - | - | - |
| 1778101989 | 18.33° C | 46% | 1016.9 hPa | 0 mm | - | - | - |
| 1778101687 | 17.78° C | 48% | 1017 hPa | 0 mm | - | - | - |
| 1778101383 | 18.33° C | 46% | 1017 hPa | 0 mm | - | - | - |
| 1778101081 | 17.78° C | 50% | 1017 hPa | 0 mm | - | - | - |
| 1778100776 | 17.22° C | 49% | 1016.9 hPa | 0 mm | - | - | - |
| 1778100473 | 17.22° C | 52% | 1017.1 hPa | 0 mm | - | - | - |
| 1778100170 | 17.22° C | 50% | 1017.3 hPa | 0 mm | - | - | - |
| 1778099868 | 17.22° C | 51% | 1017.2 hPa | 0 mm | - | - | - |
| 1778099565 | 17.22° C | 51% | 1017.1 hPa | 0 mm | - | - | - |
| 1778099262 | 17.22° C | 52% | 1017.4 hPa | 0 mm | - | - | - |
| 1778098959 | 17.22° C | 53% | 1017.3 hPa | 0 mm | - | - | - |
| 1778098656 | 17.22° C | 52% | 1017.4 hPa | 0 mm | - | - | - |
| 1778098352 | 17.22° C | 52% | 1017.4 hPa | 0 mm | - | - | - |
| 1778098050 | 17.22° C | 52% | 1017.5 hPa | 0 mm | - | - | - |
| 1778097746 | 16.67° C | 53% | 1017.6 hPa | 0 mm | - | - | - |
| 1778097442 | 16.67° C | 52% | 1017.5 hPa | 0 mm | - | - | - |
| 1778097139 | 17.22° C | 51% | 1017.4 hPa | 0 mm | - | - | - |
| 1778096836 | 17.22° C | 51% | 1017.6 hPa | 0 mm | - | - | - |
| 1778096532 | 17.22° C | 51% | 1017.5 hPa | 0 mm | - | - | - |
| 1778096231 | 17.22° C | 51% | 1017.4 hPa | 0 mm | - | - | - |
| 1778095927 | 17.22° C | 52% | 1017.6 hPa | 0 mm | - | - | - |
| 1778095624 | 16.67° C | 53% | 1018 hPa | 0 mm | - | - | - |
* Rain latest hour (hover to see other rain measurements)
** Current wind speed in m/s (hover to see current wind gust speed)